Flag for China Weather past 2 weeks in Hohhot, Inner Mongolia, China

Now
81 °F

Passing clouds.


Feels Like: 80 °F
Forecast: 62 / 84 °F
Wind: 3 mph from North

Location: Hohhot Airport

Current Time: Jul 5, 2015 at 1:25:36 PM

Latest Report: Jul 5, 2015 at 12:00 PM


Visibility: N/A

Pressure: 29.80 "Hg (26.43 "Hg at 1053m altitude)

Humidity: 39%

Dew point: 54 °F

Location of HohhotLocation

Historic Weather in Hohhot — Graph

°F

Hohhot temperature yesterday

Maximum temperature yesterday: 86 °F (at 5:00 PM)
Minimum temperature yesterday: 64 °F (at 2:00 AM)
Average temperature yesterday: 74 °F

Past Weeks' High & Low Weather Summary

 TemperatureHumidityPressure
High91 °F (Jun 27, 4:00 PM)100% (Jun 24, 6:00 AM)30.01 "Hg (Jun 24, 6:00 AM)
Low55 °F (Jul 2, 5:00 AM)16% (Jun 30, 6:00 PM)29.56 "Hg (Jun 26, 4:00 PM)
Average71 °F53%29.78 "Hg
* Reported Jun 20 12:00 Noon — Jul 5 12:00 Noon, Hohhot, Weather by CustomWeather, © 2015

Note: Actual official high and low records may vary slightly from our data, if they occured in-between our weather recording intervals... More about our weather records

Advertising

Hohhot weather history for previous 24 hours

 ConditionsComfort  
Time TempWeatherWind HumidityBarometerVisibility
12:00 PM
Sun, Jul 5
81 °FPassing clouds.3 mph39%29.80 "HgN/A
11:00 AM79 °FPassing clouds.3 mph42%29.83 "HgN/A
10:00 AM77 °FPassing clouds.6 mph44%29.83 "HgN/A
9:00 AM75 °FSunny.3 mph44%29.83 "Hg10 mi
8:00 AM72 °FSunny.8 mph57%29.83 "Hg10 mi
7:00 AM66 °FClear.8 mph68%29.83 "Hg5 mi
6:00 AM63 °FClear.3 mph77%29.83 "Hg5 mi
5:00 AM63 °FPassing clouds.8 mph73%29.83 "HgN/A
4:00 AM63 °FPassing clouds.6 mph73%29.83 "HgN/A
3:00 AM64 °FPassing clouds.3 mph68%29.83 "HgN/A
2:00 AM66 °FPassing clouds.6 mph68%29.83 "HgN/A
1:00 AM64 °FPassing clouds.6 mph68%29.83 "HgN/A
12:00 AM72 °FPassing clouds.1 mph53%29.83 "HgN/A
11:00 PM
Sat, Jul 4
72 °FClear.3 mph53%29.83 "Hg10 mi
10:00 PM73 °FPassing clouds.6 mph50%29.80 "HgN/A
9:00 PM77 °FPassing clouds.8 mph42%29.77 "HgN/A
8:00 PM79 °FPassing clouds.8 mph45%29.74 "HgN/A
7:00 PM84 °FPassing clouds.6 mph31%29.71 "HgN/A
6:00 PM86 °FPassing clouds.10 mph25%29.68 "HgN/A
5:00 PM86 °FPassing clouds.8 mph27%29.68 "HgN/A
4:00 PM84 °FPassing clouds.3 mph29%29.71 "HgN/A
3:00 PM84 °FScattered clouds.3 mph35%29.74 "HgN/A
2:00 PM82 °FScattered clouds.6 mph35%29.74 "HgN/A
1:00 PM81 °FScattered clouds.3 mph37%29.77 "HgN/A
Weather by CustomWeather, © 2015

See weather overviewHow to use our weather pages